Weather History for Pine Ridge, SD

Change the Weather History Date:

Sunday, April 28, 2013

  Actual Average Record
Temperature  
Mean Temperature 58 °F 49 °F  
Max Temperature 71 °F 64 °F 84 °F (2001)
Min Temperature 45 °F 35 °F 19 °F (1998)
Degree Days  
Heating Degree Days 7 16  
Month to date heating degree days 753 553  
Since 1 July heating degree days 6755 6791  
Cooling Degree Days 0 0  
Month to date cooling degree days 0 0  
Year to date cooling degree days 0 0  
Growing Degree Days 8 (Base 50)    
Moisture  
Dew Point 33 °F    
Average Humidity 48    
Maximum Humidity 71    
Minimum Humidity 25    
Precipitation  
Precipitation T in 0.08 in 0.72 in (2014)
Month to date precipitation 1.11 1.76  
Year to date precipitation 2.36 3.42  
Sea Level Pressure  
Sea Level Pressure 29.82 in    
Wind  
Wind Speed 10 mph (North)    
Max Wind Speed 21 mph    
Max Gust Speed 28 mph    
Visibility 10 miles    
Events      
T = Trace of Precipitation, MM = Missing Value Source: NWS Daily Summary

Daily Weather History Graph

Daily Weather History Graph

Search for Another Location

Airport:

Trip Planner

Search our weather history database for the weather conditions in past years. The results will help you decide how hot, cold, wet, or windy it might be!

Date:

Astronomy

Apr. 28, 2013 Rise Set
Actual Time 5:47 AM MDT 7:48 PM MDT
Civil Twilight 5:16 AM MDT 8:18 PM MDT
Nautical Twilight 4:39 AM MDT 8:56 PM MDT
Astronomical Twilight 3:58 AM MDT 9:38 PM MDT
Moon 11:23 PM MDT (4/28) 8:03 AM MDT (4/28)
Length of Visible Light 15h 01m
Length of Day
14h 00m
Waning Gibbous, 88% of the Moon is Illuminated
Apr 28
Waning Gibbous
May 2
Last Quarter
May 9
New
May 17
First Quarter
May 24
Full

Hourly Weather History & Observations

Time (MDT) Temp. Windchill Dew Point Humidity Pressure Visibility Wind Dir Wind Speed Gust Speed Precip Events Conditions
12:52 AM 55.0 °F - 32.0 °F 42% 29.78 in 10.0 mi SW 6.9 mph - N/A   Clear
1:52 AM 53.1 °F - 30.9 °F 43% 29.76 in 10.0 mi West 6.9 mph - N/A   Clear
2:52 AM 51.1 °F - 30.0 °F 44% 29.75 in 10.0 mi SW 4.6 mph - N/A   Clear
3:52 AM 53.1 °F - 28.0 °F 38% 29.73 in 10.0 mi SW 5.8 mph - N/A   Clear
4:52 AM 46.0 °F 44.8 °F 28.9 °F 51% 29.75 in 10.0 mi West 3.5 mph - N/A   Clear
5:52 AM 45.0 °F 43.5 °F 30.0 °F 56% 29.75 in 10.0 mi WSW 3.5 mph - N/A   Clear
6:52 AM 48.0 °F - 30.9 °F 52% 29.76 in 10.0 mi West 4.6 mph - N/A   Clear
7:52 AM 55.9 °F - 32.0 °F 40% 29.80 in 10.0 mi WNW 8.1 mph - N/A   Clear
8:52 AM 62.1 °F - 32.0 °F 32% 29.83 in 10.0 mi North 16.1 mph 19.6 mph N/A   Clear
9:52 AM 64.9 °F - 33.1 °F 31% 29.83 in 10.0 mi North 13.8 mph 21.9 mph N/A   Clear
10:52 AM 66.9 °F - 32.0 °F 27% 29.84 in 10.0 mi North 18.4 mph 23.0 mph N/A   Clear
11:52 AM 70.0 °F - 32.0 °F 25% 29.83 in 10.0 mi North 17.3 mph 25.3 mph N/A   Clear
12:52 PM 71.1 °F - 33.1 °F 25% 29.82 in 10.0 mi NNE 15.0 mph 24.2 mph N/A   Clear
1:52 PM 70.0 °F - 32.0 °F 25% 29.83 in 10.0 mi NNE 11.5 mph 24.2 mph N/A   Clear
2:52 PM 70.0 °F - 34.0 °F 27% 29.84 in 10.0 mi NNE 9.2 mph 20.7 mph N/A   Clear
3:52 PM 69.1 °F - 35.1 °F 29% 29.83 in 10.0 mi North 10.4 mph 19.6 mph N/A   Clear
4:52 PM 68.0 °F - 35.1 °F 30% 29.85 in 10.0 mi North 17.3 mph 26.5 mph N/A   Clear
5:52 PM 64.0 °F - 35.1 °F 34% 29.85 in 10.0 mi NNE 15.0 mph - N/A   Clear
6:52 PM 60.1 °F - 36.0 °F 41% 29.86 in 10.0 mi NNE 12.7 mph - N/A   Clear
7:52 PM 57.0 °F - 36.0 °F 45% 29.86 in 10.0 mi NE 5.8 mph - N/A   Clear
8:52 PM 55.0 °F - 37.0 °F 51% 29.87 in 10.0 mi ENE 4.6 mph - N/A   Overcast
9:52 PM 53.1 °F - 39.9 °F 61% 29.88 in 10.0 mi East 4.6 mph - N/A   Overcast
10:52 PM 52.0 °F - 37.9 °F 59% 29.89 in 10.0 mi North 10.4 mph 19.6 mph 0.00 in   Scattered Clouds
11:52 PM 50.0 °F - 41.0 °F 71% 29.88 in 10.0 mi NNE 12.7 mph - N/A   Scattered Clouds